Showing default

UHETSAT, 58466

Orbit data source: Space-Track

UHETSAT, 58466 is a payload satellite owned by SITAEL SpA (IT) in SSO that was launched on Fri, 01 Dec 2023 UTC via an FALCON 9 launch vehicle from the Air Force Western Test Range (AFWTR). Payload-class satellites include a variety of spacecraft equipped with specific instruments for various scientific and technological missions. These include communications satellites like Starlink; space stations such as the ISS; scientific satellites like the Hubble; Earth observation satellites from companies like Planet Labs, Umbra, and HawkEye 360; GPS; miniature CubeSats for education and research; and military/defense satellites.

Loading next visibility...
Identifier
58466, 2023-185E
Orbit
SSO
Country
Flag of ITIT
Related business
Manufacturer
SITAEL SpA
Mission
Operational Commercial Technology
Bus & Motor
S-50, Unknown motor
Mass
70 kg wet, 70 kg dry
Launch date (UTC)
2023-12-01 (2 years ago)
Launch vehicle
FALCON 9
Launch site
Air Force Western Test Range (AFWTR)
Object type
Payload
Rocket body
Debris
Shape & HBR
Box, 0.3 m
Radar Cross Section
0.360 m², Medium (>0.1 m² and < 1m²)

Expand to show TLE details & history
Last TLE update: 16 hours ago

TLE from 16 hours ago
0 UHETSAT
1 58466U 23185E   25306.49536034  .00007486  00000-0  28094-3 0  9999
2 58466  97.3801  11.1913 0014925  41.4991 318.7379 15.27400593106645
Epoch: 2025-11-02T11:53Z
TLE epoch observation values (Epoch: 2025-11-02T11:53:19.133Z)
Latitude
0.00003°
Longitude
150.85131°
Altitude
478.994 km
Speed
7.63 km/s
True Right ascension
00h 44m 45s
True Declination
0° 00' 00"
Sunlit
Object was in full shadow at epoch
Visualization orbit readout
Latitude
Unknown
Longitude
Unknown
Altitude
Unknown
Speed
Unknown
Apparent Right ascension
Unknown
Apparent Declination
Unknown
Sunlit
N/A
Visualization observer readout
Local Sidereal Time
00:01:03
Azimuth
Unknown
Elevation
Unknown
Doppler factor
Unknown
Orbital elements
Apogee altitude
490.778 km
Perigee altitude
470.305 km
Semi-major axis
6,858.678 km
Eccentricity
0.00149
Inclination
97.3801°
RAAN
11.1913°
Arg. of periapsis
41.4991°
True anomaly
318.62495°
Mean anomaly
318.7379°
Eccentric anomaly
318.68144°
Mean motion
3.82105 °/min
Orbital period
94.21 mins
BSTAR
0.00028094
Loading maneuver chart data...
Computing Atmospheric mass density...
Loading historical data...
Loading historical data...
Loading historical data...
Loading historical data...
Loading historical data...
Loading historical data...
Loading historical data...

Documentation

Showing up to 5 results
|